Cloud_Cover
100 11 75 100 100 60 13 99 100 100 100 100 100 100 100 100 100 100 69 6 0 0 9 0 0 0 0 0 0 0 0 0 0 0 4 96 100 100 54 83 90 81 51 5
98 9 100 100 97 7 95 100 100 100 100 100 100 100 100 100 96 88 4 5 2 0 0 0 0 0 0 0 0 0 0 0 0 0 7 81 100 99 64 97 100 84 43 66
7 94 100 100 100 100 100 100 100 100 100 100 100 81 90 100 99 2 1 21 4 0 0 0 0 0 0 0 3 2 0 0 0 0 18 10 82 43 99 100 100 91 66 85
66 100 100 98 43 100 100 100 78 6 17 31 37 100 100 52 0 17 95 12 52 5 0 0 0 0 0 1 2 0 0 0 0 0 1 4 97 96 100 97 95 100 86 100
95 100 100 50 100 100 100 100 100 100 100 100 86 35 2 5 2 4 2 4 1 3 0 0 0 0 0 0 0 0 0 0 0 5 0 19 100 100 71 36 9 80 100 100
100 100 78 99 100 100 100 100 100 100 100 100 98 98 4 0 2 5 0 0 0 0 0 0 0 0 0 0 0 0 0 0 6 17 0 8 86 97 100 56 61 100 100 99
100 100 100 100 100 100 100 100 100 100 97 12 0 3 3 3 4 26 1 0 0 0 0 0 0 0 0 0 0 0 0 0 0 2 5 7 98 100 100 100 59 100 100 98
100 98 100 100 100 100 34 90 24 47 5 0 64 2 0 43 31 8 25 0 0 0 0 0 0 0 0 0 0 0 0 0 0 0 7 59 100 100 100 81 18 100 100 100
97 46 99 92 100 100 94 74 54 0 5 3 18 24 98 6 14 94 4 48 0 0 0 0 0 0 0 0 0 0 0 0 0 0 1 5 95 100 100 33 95 67 56 83
0 3 1 5 0 2 3 28 85 33 24 0 0 4 5 42 60 7 5 0 0 0 0 0 0 0 0 0 0 0 0 0 0 0 0 20 100 100 100 70 69 51 76 79
0 0 0 4 0 0 0 12 91 61 0 0 0 0 5 6 77 5 4 5 0 0 0 0 0 0 0 0 0 0 0 0 0 0 1 38 100 100 100 85 32 60 79 76
0 0 0 0 3 0 0 0 12 5 2 0 0 1 5 15 31 5 5 0 0 5 0 0 0 0 0 0 0 0 0 0 0 0 0 81 100 100 100 98 73 34 6 78
19 0 0 0 0 1 1 0 1 5 1 0 7 14 24 6 47 6 0 0 0 0 0 0 0 0 0 0 0 0 0 0 0 0 4 100 100 100 100 58 94 26 19 91
12 0 0 0 14 46 36 7 3 2 0 56 92 19 11 65 13 21 5 0 0 0 0 0 0 0 0 0 0 0 0 0 0 0 9 100 100 100 100 100 100 100 66 100
86 16 0 0 0 0 0 0 0 0 5 3 97 6 9 12 40 10 2 5 0 0 0 0 0 0 0 0 0 0 0 0 0 0 0 61 80 35 100 100 100 100 78 96
5 45 9 0 0 0 0 0 0 0 5 4 5 5 5 50 62 12 86 44 1 0 0 0 0 0 0 0 0 0 0 0 0 0 0 14 100 11 100 100 100 100 97 46
3 5 44 0 0 0 5 65 2 1 5 3 3 100 10 98 55 22 100 22 1 0 0 0 0 0 0 0 0 0 0 0 0 0 0 0 60 70 70 55 97 100 100 100
0 5 5 17 6 0 3 1 1 5 3 0 32 100 19 5 69 77 5 5 4 0 0 0 0 0 0 0 0 0 0 0 0 0 0 0 0 5 5 5 5 98 100 100
0 5 5 5 4 0 5 5 5 27 4 4 0 28 100 5 11 81 5 24 5 5 0 0 0 0 0 0 0 0 0 0 0 0 0 1 5 7 5 5 5 6 100 100
4 2 52 5 2 0 89 15 8 53 24 5 0 11 98 5 1 5 5 68 70 5 5 0 0 0 0 0 0 0 0 0 0 0 0 0 0 3 5 8 5 5 5 50
82 99 12 12 25 2 92 78 100 5 2 2 5 2 5 5 1 1 0 63 89 5 5 2 0 0 0 0 0 0 0 0 0 0 0 0 0 0 5 5 5 4 1 5
100 100 61 13 96 1 13 99 22 2 1 4 5 0 5 4 4 1 6 100 100 59 5 5 5 0 0 0 0 0 0 0 0 0 0 0 0 0 0 0 0 0 0 0
100 100 62 41 36 65 98 100 68 0 4 5 0 5 5 5 3 0 5 100 100 100 50 4 5 0 0 0 0 0 0 0 0 0 0 0 0 0 0 0 0 0 0 0
100 76 0 23 16 94 100 100 100 77 35 64 1 5 5 24 5 0 1 83 100 100 89 5 0 5 3 0 0 0 0 0 0 0 0 0 0 0 0 0 0 0 0 0
100 100 100 100 92 22 100 100 92 94 34 5 5 4 10 67 5 1 0 38 100 100 6 5 2 0 0 0 0 0 0 0 0 0 3 0 0 0 0 0 0 0 0 0
100 100 97 91 5 18 37 21 32 72 10 0 2 2 4 54 36 5 0 9 100 21 5 5 2 0 0 0 0 0 0 0 2 0 0 1 0 0 0 0 0 0 0 0